FW7164 Weather Reports


Display with metric or nautical units.
time (UTC)temp
F
wind
direction
speed
MPH
gust
MPH
rain 1hr
in
rain 24hr
in
rain mn
in
humidity
%
barometer
mb
20210921050518 46 360 1.0 5.0 0.00 0.00 0.00 65 1022.8
20210921050120 46 360 2.0 5.0 0.00 0.00 0.00 62 1022.6
20210921045533 46 360 2.0 5.0 0.00 0.00 0.00 62 1022.7
20210921045035 47 360 2.0 5.0 0.00 0.00 0.00 62 1022.6
20210921044520 47 360 2.0 5.0 0.00 0.00 0.00 60 1022.5
20210921044012 47 360 2.0 5.0 0.00 0.00 0.00 59 1022.4
20210921043515 48 360 2.0 5.0 0.00 0.00 0.00 57 1022.5
20210921043011 48 360 2.0 5.0 0.00 0.00 0.00 54 1022.2
20210921042529 48 360 1.0 4.0 0.00 0.00 0.00 52 1022.1
20210921042011 48 360 0.0 4.0 0.00 0.00 0.00 51 1021.9
20210921041526 49 360 0.0 3.0 0.00 0.00 0.00 51 1022.0
20210921041011 49 360 1.0 6.0 0.00 0.00 0.00 50 1022.0
20210921040513 49 360 0.0 10.0 0.00 0.00 0.00 49 1021.9
20210921040009 49 360 3.0 10.0 0.00 0.00 0.00 48 1021.8
20210921035508 49 360 1.0 4.0 0.00 0.00 0.00 45 1021.6
20210921035005 49 360 1.0 3.0 0.00 0.00 0.00 45 1021.6
20210921034516 49 360 1.0 3.0 0.00 0.00 0.00 45 1021.4
20210921034011 48 360 1.0 4.0 0.00 0.00 0.00 45 1021.5
20210921033502 48 360 2.0 4.0 0.00 0.00 0.00 44 1021.2
20210921033001 48 360 1.0 3.0 0.00 0.00 0.00 46 1020.9
20210921032500 48 360 0.0 2.0 0.00 0.00 0.00 48 1020.9
20210921032140 48 360 0.0 2.0 0.00 0.00 0.00 45 1020.7
20210921031849 48 360 0.0 2.0 0.00 0.00 0.00 44 1020.4
20210921031058 48 360 0.0 3.0 0.00 0.00 0.00 44 1020.1
20210921030559 48 360 0.0 5.0 0.00 0.00 0.00 43 1020.1
20210921030141 47 360 1.0 4.0 0.00 0.00 0.00 42 1019.8
20210921025607 47 360 0.0 3.0 0.00 0.00 0.00 45 1019.7
20210921025057 47 360 0.0 4.0 0.00 0.00 0.00 45 1019.5
20210921024708 47 360 1.0 4.0 0.00 0.00 0.00 45 1019.2
20210921024054 47 360 0.0 2.0 0.00 0.00 0.00 46 1019.1
20210921023235 48 360 1.0 2.0 0.00 0.00 0.00 45 1018.8
20210921022613 48 360 1.0 2.0 0.00 0.00 0.00 44 1018.5
20210921022113 49 360 0.0 2.0 0.00 0.00 0.00 44 1018.4
20210921021621 49 360 0.0 2.0 0.00 0.00 0.00 44 1018.2
20210921021054 50 360 0.0 2.0 0.00 0.00 0.00 43 1018.2
20210921020548 51 360 0.0 2.0 0.00 0.00 0.00 42 1018.1
20210921020116 51 360 0.0 1.0 0.00 0.00 0.00 41 1017.8
20210921015546 52 360 0.0 2.0 0.00 0.00 0.00 38 1017.7
20210921015054 53 360 0.0 3.0 0.00 0.00 0.00 37 1017.5
20210921014606 53 360 0.0 4.0 0.00 0.00 0.00 36 1017.5
20210921014044 53 360 1.0 4.0 0.00 0.00 0.00 36 1017.4
20210921013626 53 360 1.0 3.0 0.00 0.00 0.00 35 1017.2
20210921013053 53 360 0.0 3.0 0.00 0.00 0.00 35 1017.2
20210921012541 53 360 1.0 4.0 0.00 0.00 0.00 35 1016.9
20210921012041 54 360 1.0 4.0 0.00 0.00 0.00 35 1016.8
20210921011558 54 360 1.0 5.0 0.00 0.00 0.00 35 1016.6
20210921011040 54 360 2.0 4.0 0.00 0.00 0.00 35 1016.5
20210921010540 54 360 1.0 4.0 0.00 0.00 0.00 35 1016.5
20210921010112 54 360 1.0 4.0 0.00 0.00 0.00 35 1016.5
20210921005608 53 360 1.0 4.0 0.00 0.00 0.00 35 1016.2
20210921005037 54 360 1.0 10.0 0.00 0.00 0.00 36 1016.0
20210921004619 53 360 2.0 10.0 0.00 0.00 0.00 35 1015.8
20210921004035 54 360 1.0 4.0 0.00 0.00 0.00 35 1015.7
20210921003538 54 360 1.0 4.0 0.00 0.00 0.00 35 1015.5
20210921003116 54 360 1.0 4.0 0.00 0.00 0.00 35 1015.3
20210921002543 54 360 0.0 4.0 0.00 0.00 0.00 35 1015.2
20210921002038 54 360 1.0 3.0 0.00 0.00 0.00 34 1015.2
20210921001542 55 360 1.0 4.0 0.00 0.00 0.00 34 1014.9
20210921001041 55 360 2.0 5.0 0.00 0.00 0.00 34 1014.8
20210921000530 55 360 2.0 8.0 0.00 0.00 0.00 34 1014.6
20210921000226 55 360 1.0 8.0 0.00 0.00 0.00 34 1014.5
20210920235529 55 360 1.0 5.0 0.00 0.00 0.00 33 1014.6
20210920235029 56 360 1.0 4.0 0.00 0.00 0.00 33 1014.2
20210920234606 56 360 1.0 6.0 0.00 0.00 0.00 33 1014.1
20210920234028 56 360 2.0 6.0 0.00 0.00 0.00 33 1014.0
20210920233526 56 360 0.0 4.0 0.00 0.00 0.00 33 1014.0
20210920233029 56 360 2.0 6.0 0.00 0.00 0.00 33 1014.0
20210920232525 56 360 2.0 6.0 0.00 0.00 0.00 33 1013.9
20210920232024 56 360 1.0 6.0 0.00 0.00 0.00 33 1013.8
20210920231549 57 360 3.0 6.0 0.00 0.00 0.00 32 1013.5
20210920231037 57 360 2.0 8.0 0.00 0.00 0.00 32 1013.5
20210920230522 57 360 3.0 8.0 0.00 0.00 0.00 32 1013.4
20210920230023 57 360 1.0 6.0 0.00 0.00 0.00 32 1013.0
20210920225522 57 360 2.0 6.0 0.00 0.00 0.00 32 1013.1
20210920225021 57 360 2.0 6.0 0.00 0.00 0.00 32 1013.0
20210920224537 57 360 2.0 8.0 0.00 0.00 0.00 32 1012.9
20210920224040 57 360 2.0 8.0 0.00 0.00 0.00 32 1013.0
20210920223520 58 360 2.0 4.0 0.00 0.00 0.00 31 1012.7
20210920223041 58 360 2.0 4.0 0.00 0.00 0.00 31 1012.7
20210920222519 58 360 1.0 6.0 0.00 0.00 0.00 32 1012.5
20210920222018 58 360 3.0 6.0 0.00 0.00 0.00 31 1012.5
20210920221527 58 360 2.0 5.0 0.00 0.00 0.00 31 1012.6
20210920221017 58 360 2.0 5.0 0.00 0.00 0.00 31 1012.4
20210920220517 58 360 1.0 9.0 0.00 0.00 0.00 31 1012.2
20210920220051 58 360 1.0 9.0 0.00 0.00 0.00 31 1012.3
20210920215515 58 360 2.0 6.0 0.00 0.00 0.00 31 1012.1
20210920215021 58 360 2.0 6.0 0.00 0.00 0.00 31 1011.9
20210920214514 59 360 3.0 6.0 0.00 0.00 0.00 31 1011.9
20210920214013 59 360 2.0 6.0 0.00 0.00 0.00 31 1011.8
20210920213513 59 360 2.0 9.0 0.00 0.00 0.00 30 1011.7
20210920213037 59 360 2.0 9.0 0.00 0.00 0.00 30 1011.5
20210920212512 60 360 3.0 10.0 0.00 0.00 0.00 30 1011.6
20210920212025 60 360 4.0 10.0 0.00 0.00 0.00 30 1011.5
20210920211516 60 360 3.0 6.0 0.00 0.00 0.00 30 1011.4
20210920211012 60 360 2.0 6.0 0.00 0.00 0.00 30 1011.3
20210920210512 60 360 3.0 9.0 0.00 0.00 0.00 31 1011.3
20210920210013 59 360 1.0 9.0 0.00 0.00 0.00 30 1011.3
20210920205514 60 360 3.0 8.0 0.00 0.00 0.00 30 1011.4
20210920205011 60 360 2.0 8.0 0.00 0.00 0.00 31 1011.2
20210920204536 60 360 2.0 5.0 0.00 0.00 0.00 31 1011.2
20210920204014 60 360 2.0 9.0 0.00 0.00 0.00 32 1011.1
20210920203509 60 360 4.0 11.0 0.00 0.00 0.00 31 1011.2
20210920203027 61 360 3.0 11.0 0.00 0.00 0.00 31 1011.3
20210920202510 61 360 3.0 11.0 0.00 0.00 0.00 30 1011.1
20210920202008 62 360 4.0 11.0 0.00 0.00 0.00 31 1010.9
20210920201512 62 360 2.0 6.0 0.00 0.00 0.00 31 1011.0
20210920201008 63 148 2.0 6.0 0.00 0.00 0.00 31 1010.9
20210920200508 62 225 2.0 8.0 0.00 0.00 0.00 32 1011.0
20210920200013 62 267 3.0 8.0 0.00 0.00 0.00 32 1010.9
20210920195507 62 109 2.0 12.0 0.00 0.00 0.00 32 1011.0
20210920195007 62 157 3.0 12.0 0.00 0.00 0.00 31 1010.9
20210920194523 62 175 2.0 9.0 0.00 0.00 0.00 32 1011.1
20210920194006 62 227 3.0 9.0 0.00 0.00 0.00 32 1011.1
20210920193509 62 360 2.0 9.0 0.00 0.00 0.00 33 1011.1
20210920193010 61 360 3.0 8.0 0.00 0.00 0.00 34 1011.1
20210920192505 61 360 2.0 12.0 0.00 0.00 0.00 34 1011.2
20210920192006 60 360 4.0 12.0 0.00 0.00 0.00 34 1011.1
20210920191508 61 360 4.0 11.0 0.00 0.00 0.00 34 1011.1
20210920191004 62 360 5.0 9.0 0.00 0.00 0.00 33 1011.0
20210920190503 62 360 3.0 8.0 0.00 0.00 0.00 34 1010.7
20210920190021 61 360 3.0 10.0 0.00 0.00 0.00 34 1010.7
20210920185503 61 360 4.0 10.0 0.00 0.00 0.00 34 1010.6
20210920185002 61 360 2.0 11.0 0.00 0.00 0.00 35 1010.5
20210920184501 60 360 3.0 11.0 0.00 0.00 0.00 36 1010.5
20210920184104 61 360 4.0 11.0 0.00 0.00 0.00 35 1010.4
20210920183607 61 360 4.0 10.0 0.00 0.00 0.00 35 1010.3
20210920183126 61 360 3.0 9.0 0.00 0.00 0.00 35 1010.2
20210920182634 61 360 2.0 9.0 0.00 0.00 0.00 37 1010.2
20210920182059 60 360 3.0 15.0 0.00 0.00 0.00 38 1010.0
20210920181631 60 360 4.0 15.0 0.00 0.00 0.00 38 1009.9
20210920181057 60 360 3.0 15.0 0.00 0.00 0.00 38 1009.7
20210920180609 60 360 4.0 15.0 0.00 0.00 0.00 38 1009.6
20210920180201 61 360 6.0 14.0 0.00 0.00 0.00 38 1009.3
20210920175556 61 360 4.0 13.0 0.00 0.00 0.00 38 1009.2
20210920175056 62 360 5.0 11.0 0.00 0.00 0.00 38 1009.3
20210920174641 61 360 3.0 8.0 0.00 0.00 0.00 40 1009.1
20210920174058 61 360 3.0 8.0 0.00 0.00 0.00 40 1009.0
20210920173555 61 360 3.0 9.0 0.00 0.00 0.00 40 1009.3
20210920173132 61 360 4.0 10.0 0.00 0.00 0.00 40 1009.1
20210920172553 62 360 4.0 10.0 0.00 0.00 0.00 38 1008.9
20210920172054 62 360 2.0 6.0 0.00 0.00 0.00 38 1009.0
20210920171628 61 360 3.0 6.0 0.00 0.00 0.00 39 1009.1
20210920171051 61 360 3.0 12.0 0.00 0.00 0.00 39 1009.0
20210920170606 60 360 4.0 12.0 0.00 0.00 0.00 41 1009.0
20210920170127 60 360 3.0 6.0 0.00 0.00 0.00 43 1008.9
20210920165551 59 360 2.0 8.0 0.00 0.00 0.00 44 1009.1
20210920165124 59 360 3.0 8.0 0.00 0.00 0.00 43 1009.0
20210920164634 59 360 3.0 8.0 0.00 0.00 0.00 44 1009.0
20210920164056 59 360 3.0 8.0 0.00 0.00 0.00 46 1008.9
20210920163556 59 206 4.0 8.0 0.00 0.00 0.00 45 1008.9
20210920163118 60 153 3.0 7.0 0.00 0.00 0.00 44 1009.0
20210920162627 61 132 2.0 9.0 0.00 0.00 0.00 43 1008.9
20210920162051 63 360 4.0 9.0 0.00 0.00 0.00 36 1008.9
20210920161632 63 360 2.0 10.0 0.00 0.00 0.00 33 1008.7
20210920161042 62 360 3.0 10.0 0.00 0.00 0.00 36 1008.6
20210920160541 62 360 2.0 9.0 0.00 0.00 0.00 42 1008.5
20210920160132 61 360 3.0 12.0 0.00 0.00 0.00 37 1008.5
20210920155537 60 360 3.0 12.0 0.00 0.00 0.00 39 1008.3
20210920155107 59 360 2.0 8.0 0.00 0.00 0.00 47 1008.2
20210920154553 58 360 2.0 8.0 0.00 0.00 0.00 53 1008.2
20210920154038 58 360 1.0 6.0 0.00 0.00 0.00 54 1008.2
20210920153538 57 360 2.0 5.0 0.00 0.00 0.00 57 1008.1
20210920153127 57 360 2.0 6.0 0.00 0.00 0.00 59 1008.0
20210920152536 56 360 3.0 6.0 0.00 0.00 0.00 58 1007.9
20210920152038 55 360 2.0 5.0 0.00 0.00 0.00 66 1007.8
20210920151535 54 360 1.0 3.0 0.00 0.00 0.00 65 1007.9
20210920151030 53 360 1.0 3.0 0.00 0.00 0.00 71 1007.7
20210920150529 52 360 0.0 3.0 0.00 0.00 0.00 73 1007.8
20210920150105 51 360 1.0 3.0 0.00 0.00 0.00 75 1007.7
20210920145533 50 360 1.0 3.0 0.00 0.00 0.00 78 1007.7
20210920145030 50 360 1.0 3.0 0.00 0.00 0.00 80 1007.7
20210920144536 49 360 1.0 3.0 0.00 0.00 0.00 81 1007.6
20210920144025 49 360 1.0 3.0 0.00 0.00 0.00 83 1007.6
20210920143526 48 360 1.0 3.0 0.00 0.00 0.00 85 1007.6
20210920143026 47 360 1.0 3.0 0.00 0.00 0.00 85 1007.5
20210920142530 47 360 0.0 4.0 0.00 0.00 0.00 86 1007.6
20210920142024 47 360 1.0 4.0 0.00 0.00 0.00 87 1007.5
20210920141619 46 360 1.0 3.0 0.00 0.00 0.00 88 1007.3
20210920141030 46 360 0.0 3.0 0.00 0.00 0.00 87 1007.3
20210920140522 46 360 1.0 3.0 0.00 0.00 0.00 89 1007.1
20210920140133 45 360 1.0 3.0 0.00 0.00 0.00 90 1007.0
20210920135522 45 360 0.0 2.0 0.00 0.00 0.00 92 1007.0
20210920135034 44 360 1.0 3.0 0.00 0.00 0.00 92 1006.8
20210920134547 43 360 1.0 3.0 0.00 0.00 0.00 93 1006.7
20210920134027 43 360 0.0 2.0 0.00 0.00 0.00 92 1006.4
20210920133520 43 360 0.0 2.0 0.00 0.00 0.00 93 1006.4
20210920133032 42 360 0.0 2.0 0.00 0.00 0.00 92 1006.1
20210920132517 42 360 0.0 1.0 0.00 0.00 0.00 92 1006.1
20210920132022 42 360 0.0 1.0 0.00 0.00 0.00 91 1006.1
20210920131532 42 360 0.0 0.0 0.00 0.00 0.00 90 1005.9
20210920131014 42 360 0.0 0.0 0.00 0.00 0.00 90 1005.8
20210920130520 42 360 0.0 2.0 0.00 0.00 0.00 90 1005.7
20210920130023 42 360 0.0 2.0 0.00 0.00 0.00 89 1005.7
20210920125516 42 360 1.0 2.0 0.00 0.00 0.00 89 1005.5
20210920125027 42 360 0.0 2.0 0.00 0.00 0.00 89 1005.3
20210920124512 42 360 1.0 2.0 0.00 0.00 0.00 89 1005.1
20210920124014 43 360 1.0 2.0 0.00 0.00 0.00 89 1004.9
20210920123511 43 360 1.0 2.0 0.00 0.00 0.00 89 1004.9
20210920123029 43 360 1.0 2.0 0.00 0.00 0.00 88 1005.0
20210920122514 44 360 0.0 2.0 0.00 0.00 0.00 88 1004.8
20210920122004 44 360 0.0 2.0 0.00 0.00 0.00 87 1004.8
20210920121541 44 360 1.0 2.0 0.00 0.00 0.00 86 1004.6
20210920121006 45 360 1.0 2.0 0.00 0.00 0.00 86 1004.7
20210920120502 45 360 0.0 2.0 0.00 0.00 0.00 86 1004.5
20210920120137 45 360 0.0 3.0 0.00 0.00 0.00 85 1004.5
20210920115559 45 360 0.0 4.0 0.00 0.00 0.00 85 1004.5
20210920115103 46 360 2.0 4.0 0.00 0.00 0.00 85 1004.2
20210920114620 46 360 2.0 4.0 0.00 0.00 0.00 85 1004.1
20210920114056 46 360 1.0 4.0 0.00 0.00 0.00 86 1004.1
20210920113555 46 360 1.0 3.0 0.00 0.00 0.00 87 1004.1
20210920113215 46 360 0.0 2.0 0.00 0.00 0.00 86 1004.1
20210920112553 47 360 0.0 2.0 0.00 0.00 0.00 84 1004.2
20210920112054 47 360 1.0 2.0 0.00 0.00 0.00 84 1004.6
20210920111651 48 360 0.0 2.0 0.00 0.00 0.00 82 1004.5
20210920111050 48 360 0.0 2.0 0.00 0.00 0.00 81 1004.5
20210920110602 49 360 0.0 2.0 0.00 0.00 0.00 79 1004.1
20210920110126 49 360 0.0 2.0 0.00 0.00 0.00 77 1004.6
20210920105555 50 360 0.0 2.0 0.00 0.00 0.00 76 1004.6
20210920105107 50 360 0.0 2.0 0.00 0.00 0.00 71 1004.6
20210920104633 50 360 0.0 2.0 0.00 0.00 0.00 66 1004.8
20210920104047 50 360 0.0 3.0 0.00 0.00 0.00 66 1004.7
20210920103541 50 360 1.0 3.0 0.00 0.00 0.00 67 1004.5
20210920103106 50 360 0.0 1.0 0.00 0.00 0.00 66 1004.4
20210920102539 50 360 0.0 1.0 0.00 0.00 0.00 66 1004.3
20210920102040 50 360 0.0 1.0 0.00 0.00 0.00 66 1004.2
20210920101548 50 360 0.0 1.0 0.00 0.00 0.00 66 1004.1
20210920101040 50 360 0.0 2.0 0.00 0.00 0.00 66 1004.0
20210920100538 50 360 1.0 4.0 0.00 0.00 0.00 66 1003.9
20210920100112 50 360 0.0 4.0 0.00 0.00 0.00 66 1003.9
20210920095537 50 360 0.0 3.0 0.00 0.00 0.00 66 1003.7
20210920095035 50 360 1.0 4.0 0.00 0.00 0.00 66 1003.8
20210920094545 50 360 1.0 4.0 0.00 0.00 0.00 66 1003.7
20210920093540 51 360 1.0 4.0 0.00 0.00 0.00 66 1003.9
20210920093507 51 360 2.0 4.0 0.00 0.00 0.00 66 1003.9
20210920093035 51 360 1.0 4.0 0.00 0.00 0.00 66 1004.2
20210920092533 51 360 3.0 4.0 0.00 0.00 0.00 66 1004.1
20210920092034 51 360 1.0 4.0 0.00 0.00 0.00 65 1004.1
20210920091533 51 360 2.0 4.0 0.00 0.00 0.00 65 1003.9
20210920091031 52 360 0.0 4.0 0.00 0.00 0.00 65 1003.8
20210920090543 52 360 2.0 5.0 0.00 0.00 0.00 65 1003.9
20210920090124 52 360 0.0 3.0 0.00 0.00 0.00 64 1003.8
20210920085545 52 360 1.0 3.0 0.00 0.00 0.00 64 1003.8
20210920085034 52 360 0.0 3.0 0.00 0.00 0.00 63 1003.8
20210920084542 52 360 0.0 2.0 0.00 0.00 0.00 63 1003.6
20210920084034 52 360 0.0 4.0 0.00 0.00 0.00 62 1003.5
20210920083526 52 360 1.0 4.0 0.00 0.00 0.00 62 1003.3
20210920083028 53 360 1.0 5.0 0.00 0.00 0.00 61 1003.1
20210920082524 53 360 1.0 5.0 0.00 0.00 0.00 60 1003.0
20210920082023 53 360 2.0 4.0 0.00 0.00 0.00 58 1002.8
20210920081527 53 360 0.0 3.0 0.00 0.00 0.00 55 1002.8
20210920081030 54 360 0.0 8.0 0.00 0.00 0.00 54 1002.5
20210920080521 54 360 2.0 8.0 0.00 0.00 0.00 53 1002.4
20210920080023 53 360 1.0 5.0 0.00 0.00 0.00 50 1002.3
20210920075525 53 360 2.0 5.0 0.00 0.00 0.00 49 1002.3
20210920075022 53 360 1.0 3.0 0.00 0.00 0.00 48 1001.9
20210920074519 52 360 1.0 5.0 0.00 0.00 0.00 45 1001.8
20210920074019 53 360 2.0 5.0 0.00 0.00 0.00 45 1001.7
20210920073516 53 360 0.0 3.0 0.00 0.00 0.00 44 1001.7
20210920073031 54 360 1.0 5.0 0.00 0.00 0.00 43 1001.5
20210920072519 54 360 1.0 5.0 0.00 0.00 0.00 43 1001.5
20210920072014 54 360 0.0 9.0 0.00 0.00 0.00 42 1001.4
20210920071514 54 360 4.0 9.0 0.00 0.00 0.00 42 1001.4
20210920071013 55 360 0.0 3.0 0.00 0.00 0.00 42 1001.2
20210920070513 55 360 0.0 9.0 0.00 0.00 0.00 41 1000.9
20210920070014 55 360 5.0 9.0 0.00 0.00 0.00 41 1001.1
20210920065512 55 360 6.0 9.0 0.00 0.00 0.00 42 1000.9
20210920065012 54 360 4.0 10.0 0.00 0.00 0.00 44 1000.9
20210920064516 53 360 3.0 10.0 0.00 0.00 0.00 45 1000.8
20210920064011 52 360 1.0 4.0 0.00 0.00 0.00 46 1000.8
20210920063515 51 360 1.0 3.0 0.00 0.00 0.00 46 1000.7
20210920063012 51 360 0.0 3.0 0.00 0.00 0.00 47 1000.7
20210920062510 51 360 1.0 3.0 0.00 0.00 0.00 46 1000.6
20210920062010 52 360 0.0 3.0 0.00 0.00 0.00 47 1000.6
20210920061522 52 360 0.0 4.0 0.00 0.00 0.00 46 1000.6
20210920061023 51 360 2.0 4.0 0.00 0.00 0.00 49 1000.7
20210920060513 51 360 1.0 4.0 0.00 0.00 0.00 47 1000.9
20210920060010 51 360 1.0 4.0 0.00 0.00 0.00 46 1000.8
20210920055507 51 360 1.0 3.0 0.00 0.00 0.00 47 1000.8
20210920055020 51 360 1.0 3.0 0.00 0.00 0.00 47 1000.8
20210920054524 51 360 1.0 4.0 0.00 0.00 0.00 46 1001.1
20210920054011 51 360 2.0 4.0 0.00 0.00 0.00 46 1001.1
20210920053508 52 360 1.0 3.0 0.00 0.00 0.00 46 1001.2
20210920053006 52 360 1.0 3.0 0.00 0.00 0.00 46 1001.1
20210920052503 52 360 1.0 3.0 0.00 0.00 0.00 45 1001.0
20210920052004 52 360 0.0 3.0 0.00 0.00 0.00 44 1000.9
20210920051502 53 360 0.0 3.0 0.00 0.00 0.00 44 1000.8
20210920051001 53 360 0.0 3.0 0.00 0.00 0.00 43 1000.8